www.pogodaiklimat.ru

Погода и климат >> Архив погоды >> Россия >> Нижегородская область >> Балахна


ПОГОДА в Балахне

  • Прогноз погоды в Балахне
  • Монитор погоды в Балахне

АРХИВ ПОГОДЫ в Балахне

Время (UTC), дата Ветер
(напр.,м/с)
 
Видим.   Явления Облачность Т
(С)
Тd
(С)
f
(%)
Тe
(С)
Тes
(С)
Комфортность P
(гПа)
Po
(гПа)
Тmin
(С)
Tmax
(С)
R
(мм)
R24
(мм)
S
(см)
00 18.08 ЮВ 2-4
{5}
н/о н/о +17.7 +17.6 99 +18 +18 1015.3 1004.8
03 18.08 В 3-6
{6}
н/о н/о +17.8 +17.5 98 +18 +18 1013.7 1003.2 +16.7 8
06 18.08 ЮВ 3-7
{8}
н/о н/о +19.9 +17.7 87 +23 +23 комфорт 1013.0 1002.6
09 18.08 ЮВ 3-6
{9}
н/о н/о +22.7 +18.4 77 +28 +28 душно 1012.6 1002.3
12 18.08 ЮВ 2-4
{7}
н/о н/о +26.0 +19.7 68 +32 +32 очень
душно
1012.7 1002.6
15 18.08 ЮВ 1-2
{5}
н/о н/о +25.8 +20.1 71 +32 +32 очень
душно
1013.5 1003.3 +26.6 0.3
18 18.08 Ю 1-2
{2}
н/о н/о +20.1 +19.5 96 +25 +25 комфорт 1014.8 1004.4
21 18.08 Ю 1-3
{3}
н/о н/о +18.6 +18.2 98 +21 +21 комфорт 1015.8 1005.3
00 19.08 Ю 1-4
{3}
н/о н/о +18.2 +18.0 99 +20 +20 1015.6 1005.1
03 19.08 ЮВ 1-2
{4}
н/о н/о +18.6 +18.5 99 +21 +21 комфорт 1015.8 1005.3 +17.7 3
06 19.08 ЮЗ 1-3
{4}
н/о н/о +20.1 +19.3 95 +25 +25 комфорт 1016.4 1006.0
09 19.08 З 2-5
{5}
н/о н/о +24.2 +17.1 65 +28 +28 душно 1016.7 1006.4
12 19.08 З 3-7
{7}
н/о н/о +22.5 +15.1 63 +26 +26 жарко 1017.7 1007.4
15 19.08 З 1-2
{7}
н/о н/о +20.3 +15.2 73 +24 +24 комфорт 1019.1 1008.6 +24.3 0.3
18 19.08 З 1-2
{3}
н/о н/о +16.1 +15.4 96 +17 +17 1020.2 1009.6
21 19.08 З 1-1
{2}
н/о н/о +14.9 +14.4 97 +15 +15 1020.7 1010.1
00 20.08 З 1-1
{2}
н/о н/о +13.6 +13.5 99 +14 +14 1021.5 1010.8
03 20.08 штиль 0
{2}
н/о н/о +13.6 +13.6 100 +13 +13 1022.4 1011.6 +12.7 11
06 20.08 З 1-1
{2}
н/о н/о +19.5 +16.8 84 +23 +23 комфорт 1022.9 1012.4
09 20.08 СВ 1-3
{3}
н/о н/о +24.2 +17.4 66 +28 +28 душно 1022.8 1012.5
12 20.08 СЗ 1-2
{4}
н/о н/о +24.6 +16.8 62 +28 +28 душно 1022.6 1012.3
15 20.08 штиль 0
{4}
н/о н/о +25.4 +16.4 57 +29 +29 душно 1022.6 1012.3 +26.0 6.1
18 20.08 штиль 0
{1}
н/о н/о +17.5 +17.3 99 +17 +17 1023.5 1012.9
21 20.08 штиль 0
{1}
н/о н/о +14.7 +14.2 97 +14 +14 1024.0 1013.3
00 21.08 штиль 0
{1}
н/о н/о +13.3 +13.2 99 +13 +13 1024.3 1013.5
03 21.08 штиль 0
{1}
н/о н/о +15.4 +13.5 88 +15 +15 1024.3 1013.6 +13.1
06 21.08 СЗ 1-3
{3}
н/о н/о +22.0 +18.1 79 +27 +27 душно 1024.7 1014.2
09 21.08 С 2-4
{4}
н/о н/о +27.0 +18.8 61 +32 +32 очень
душно
1024.3 1014.0
12 21.08 С 3-7
{7}
н/о н/о +25.1 +19.1 69 +30 +30 душно 1024.8 1014.5
15 21.08 С 1-3
{7}
н/о н/о +24.5 +18.0 67 +29 +29 душно 1024.5 1014.1 +27.1 9
18 21.08 штиль 0
{3}
н/о н/о +18.5 +17.8 96 +19 +19 1024.6 1014.0
21 21.08 штиль 0
{1}
н/о н/о +14.6 +13.9 96 +14 +14 1024.7 1013.9
00 22.08 штиль 0
{1}
н/о н/о +13.2 +13.1 99 +13 +13 1024.5 1013.7
03 22.08 штиль 0
{1}
н/о н/о +13.4 +13.3 99 +13 +13 1024.2 1013.4 +12.6 11
06 22.08 ЮЗ 1-3
{3}
н/о н/о +23.1 +18.5 75 +29 +29 очень
душно
1022.7 1012.4
09 22.08 З 3-6
{6}
н/о н/о +27.1 +18.8 60 +32 +32 очень
душно
1021.1 1010.8
12 22.08 З 3-5
{6}
н/о н/о +28.8 +18.2 53 +34 +34 очень
душно
1019.6 1009.5
15 22.08 З 2-3
{7}
н/о н/о +26.2 +18.5 63 +31 +31 очень
душно
1019.0 1008.7 +29.0 0.8
18 22.08 С 2-5
{10}
н/о н/о +17.1 +15.5 90 +17 +17 1022.9 1012.3
21 22.08 С 2-4
{5}
н/о н/о +15.6 +13.6 88 +15 +15 1024.5 1013.8
00 23.08 СЗ 1-2
{5}
н/о н/о +12.7 +12.7 100 +13 +13 1025.8 1014.9
03 23.08 С 2-3
{3}
н/о н/о +12.6 +12.5 99 +12 +12 1027.1 1016.3 +11.3 6.2
06 23.08 С 2-4
{5}
н/о н/о +17.9 +13.4 75 +18 +18 1028.1 1017.4
09 23.08 С 3-6
{7}
н/о н/о +21.4 +11.8 54 +23 +23 комфорт 1028.3 1017.8
12 23.08 С 2-5
{7}
н/о н/о +22.7 +10.9 47 +25 +25 комфорт 1027.8 1017.3
15 23.08 С 1-2
{7}
н/о н/о +21.5 +11.0 51 +23 +23 комфорт 1027.3 1016.8 +22.9 5.0
18 23.08 штиль 0
{2}
н/о н/о +12.9 +12.3 96 +12 +12 1028.0 1017.2
21 23.08 штиль 0
{1}
н/о н/о +10.0 +9.9 99 +9 +9 1028.0 1017.0
00 24.08 штиль 0
{1}
н/о н/о +8.0 +7.9 99 +7 +7 1027.8 1016.8
03 24.08 штиль 0
{1}
н/о н/о +10.2 +10.1 99 +9 +9 1027.5 1016.5 +7.7
06 24.08 З 2-3
{3}
н/о н/о +18.1 +12.7 71 +19 +19 1026.7 1016.1
09 24.08 З 3-5
{7}
н/о н/о +22.0 +10.9 49 +24 +24 комфорт 1024.9 1014.5
12 24.08 З 3-6
{7}
н/о н/о +22.6 +10.6 47 +25 +25 комфорт 1022.6 1012.2
15 24.08 З 1-3
{7}
н/о н/о +20.5 +11.8 57 +24 +24 комфорт 1020.9 1010.4 +23.0 38
18 24.08 СЗ 2-3
{4}
н/о н/о +18.3 +12.5 69 +19 +19 1020.2 1009.7
21 24.08 СЗ 2-3
{6}
н/о н/о +16.1 +12.7 80 +16 +16 1019.8 1009.2

 

Местоположение метеостанции Балахна (Нижегородская область, Россия): широта 56.47 долгота 43.20 высота над уровнем моря 89 м.

В архиве по умолчанию представлена погода в Балахне за последнюю неделю. Архивные данные за месяц целиком и за предыдущие месяцы, начиная с января 2011 года, Вы можете получить, выбрав интересующий диапазон дат из раскрывающегося списка и нажав кнопку "Ввод!".


*Определитесь, кто Вы:
робот инопланетянин человек

Внимание! Время в таблицах - всемирное. Для получения местного времени необходимо прибавить поправку, которая равна 3 ч.

Смотрите также архив погоды в соседних городах и на ближайших метеорологических станциях:

Погода в Волжской ГМО (Нижегородская область, Россия) (27 км)
Погода в Нижнем Новгороде аэропорт (Нижегородская область, Россия) (45 км)
Погода в Нижнем Новгороде (Нижегородская область, Россия) (54 км)
Погода в Павлово (Нижегородская область, Россия) (59 км)
Погода в Вязниках (Владимирская область, Россия) (70 км)
Погода в Семенове (Нижегородская область, Россия) (86 км)
Погода в Дальнем Константиново (Нижегородская область, Россия) (92 км)
Погода в Юрьевце (Ивановская область, Россия) (96 км)
Погода в Пешном (Атырауская область, Казахстан) (105 км)
Погода в Вичуге (Ивановская область, Россия) (114 км)

Пояснения к столбцам:

Ветер - указаны скорость ветра в м/с - средняя за 10 мин, порывы в срок и между сроками (в фигурных скобках) и направление, откуда дует ветер: С - северный, СВ - северо-восточный, В - восточный, ЮВ - юго-восточный, Ю - южный, ЮЗ - юго-западный, З - западный, СЗ - северо-западный.
Видимость - горизонтальная дальность видимости в метрах или километрах. При видимости от 1 до 10 км при отсутствии осадков обычно наблюдается дымка, при ухудшении видимости до 1 км и менее - туман. В сухую погоду видимость может ухудшаться дымом, пылью или мглою.
Явления - указаны атмосферные явления, наблюдавшиеся в срок или в последний час перед сроком; фигурными скобками обозначены явления, наблюдавшиеся между сроками (за 1-3 часа до срока); квадратными скобками обозначены град или гололедные отложения с указанием их диаметра в мм.
Облачность - указаны через наклонную черту общая и нижняя облачность в баллах и высота нижней границы облаков в метрах; квадратными скобками обозначены формы облаков: Ci - перистые, Cs - перисто-слоистые, Cc - перисто-кучевые, Ac - высококучевые, As - высокослоистые, Sc - слоисто-кучевые, Ns - слоисто-дождевые, Cu - кучевые, Cb - кучево-дождевые. Подробнее классификацию облаков см. в Атласе облаков (PDF).
T - Температура воздуха - температура, измеренная на высоте 2 м над землей.
Td - Температура точки росы - температура, при понижении до которой содержащийся в воздухе водяной пар достигнет насыщения.
f - Относительная влажность воздуха - влажноcть воздуха, измеренная на высоте 2 м над землей.
Te - Эффективная температура - температура, которую ощущает одетый по сезону человек в тени. Характеристика душности погоды. При расчете учитывается влияние влажности воздуха и скорости ветра на теплоощущения человека.
Tes - Эффективная температура на солнце - температура, которую ощущает человек, с поправкой на солнечный нагрев. Характеристика знойности погоды. Зависит от высоты солнца над горизонтом, облачности и скорости ветра. Ночью, в пасмурную погоду, а также при ветре 12 м/с и более поправка равна нулю.
P - Атмосферное давление - приведенное к уровню моря атмосферное давление.
Po - Атмосферное давление - измеренное на уровне метеостанции атмосферное давление.
Tmin - Минимальная температура - минимум температуры воздуха на высоте 2 м над землей.
Tmax - Максимальная температура - максимум температуры воздуха на высоте 2 м над землей.
R - Количество осадков - Количество выпавших осадков за период времени, мм. При наведении курсора мыши на число - период времени, за который выпало указанное количество осадков.
R24 - Количество осадков - Количество выпавших осадков за 24 часа, мм.
S - Снежный покров - Высота снежного покрова, см. При наведении курсора мыши на число - состояние снежного покрова и степень покрытия местности в баллах.